Regional Weather Roundup
Issued by NWS Bismarck, ND

Current Version | Previous Version | Text Only | Print | Product List | Glossary On
Versions: 1 2 3 4 5 6 7 8 9 10 11 12 13 14 15 16 17 18 19 20 21 22 23 24 25 26 27 28 29 30 31 32 33 34 35 36 37 38 39 40 41 42 43 44 45 46 47 48 49 50
000
ASUS43 KBIS 170120
RWRBIS

NWR BROADCAST TEXT
NATIONAL WEATHER SERVICE BISMARCK ND
800 PM CDT WED APR 16 2014

NOTE: "FAIR" INDICATES FEW OR NO CLOUDS BELOW 12,000 FEET WITH NO
SIGNIFICANT WEATHER AND/OR OBSTRUCTIONS TO VISIBILITY.


CITY           SKY/WX    TMP DP  RH WIND       PRES   REMARKS
WILLISTON        N/A    N/A N/A N/A MISG      30.24R
MINOT          CLOUDY    32  18  56 NE8       30.24R
MINOT AFB      CLOUDY    32  18  57 E10       30.24R
BISMARCK       CLOUDY    36  15  42 NE12      30.20R
DICKINSON      CLOUDY    28  19  69 E13       30.16R WCI  17
GARRISON         N/A     33  17  51 E8        30.21R
HETTINGER ARPT CLOUDY    30  22  72 NE9       30.16R
JAMESTOWN      CLEAR     34  18  52 N13       30.18R
CARRINGTON     FAIR      32  16  51 NE9       30.23R
CROSBY         CLOUDY    28  21  74 E13       30.26S WCI  18
HARVEY         MOCLDY    32  18  55 NE13      30.24R
HAZEN          CLOUDY    32  16  51 NE8       30.22S
LINTON         FAIR      32  18  55 NE6       30.18R
MANDAN         CLOUDY    36  14  41 NE12      30.20R
OAKES          FAIR      32  21  64 N9        30.16R
RUGBY          FAIR      28  14  54 NE14G20   30.27R WCI  17
STANLEY        FAIR      27  25  93 NE6       30.23R WCI  20
TIOGA          MIX PCPN  27  27 100 E6        30.26R WCI  20
WATFORD CITY   CLOUDY    27  19  74 E9        30.21S WCI  17
$$

CITY           SKY/WX    TMP DP  RH WIND       PRES   REMARKS
GRAND FORKS    CLEAR     34  10  37 NE15      30.19R
GRAND FORKS AF CLEAR     35  10  35 NE14      30.24R
DEVILS LAKE    CLEAR     30  10  43 NE15G21   30.25R WCI  19
FARGO          CLEAR     36  22  56 NE8       30.16R
CANDO          FAIR      30  14  51 NE15G21   30.27R WCI  19
CAVALIER       FAIR      32  14  47 N14G21    30.29R
GRAFTON        FAIR      32  18  55 N15       30.27R
GWINNER        CLEAR     34  23  64 NE8       30.16R
LANGDON        FAIR      28  14  54 NE15      30.26R WCI  17
ROLLA          FAIR      27  14  59 NE14      30.28R WCI  15
$$

CITY           SKY/WX    TMP DP  RH WIND       PRES   REMARKS
ABERDEEN       MOCLDY    32  23  69 NE12      30.15R
MOBRIDGE       CLEAR     34  20  56 NE10      30.14R
BUFFALO          N/A     32  23  69 E15       30.05R
RAPID CITY     MOCLDY    36  25  64 NE15      30.09R
GLASGOW        PTCLDY    34  19  54 E16       30.15R
SIDNEY         CLOUDY    30  19  64 E9        30.22S
WOLF POINT     CLOUDY    33  18  53 E13       30.19S
GLENDIVE       CLOUDY    30  19  64 E13       30.17S
MILES CITY     PTCLDY    39  24  55 NE14      30.08R
BAKER          CLOUDY    32  23  69 E13       30.13R
$$

CITY           SKY/WX    TMP DP  RH WIND       PRES   REMARKS
BILLINGS       MOCLDY    42  31  64 NE8       30.02R
GREAT FALLS    CLOUDY    41  34  76 E7        29.98R
REGINA         FLURRIES  28  21  74 E13       30.27S WCI  18
ESTEVAN        MOCLDY    28  18  64 E14       30.27R WCI  17
$$




USA.gov is the U.S. government's official web portal to all federal, state and local government web resources and services.